Regional Weather Roundup
Issued by NWS

Home | Current Version | Previous Version | Graphics & Text | Print | Product List | Glossary On
Versions: 1 2 3 4 5 6 7 8 9 10 11 12 13 14 15 16 17 18 19 20 21 22 23 24 25 26 27 28 29 30 31 32 33 34 35 36 37 38 39 40 41 42 43 44 45 46 47 48 49 50
000
ASUS43 KIND 191709
RWRIN

WEATHER ROUNDUP FOR INDIANA
NATIONAL WEATHER SERVICE INDIANAPOLIS IN
100 PM EDT SUN OCT 19 2014

NOTE: "FAIR" INDICATES FEW OR NO CLOUDS BELOW 12,000 FEET WITH NO
SIGNIFICANT WEATHER AND/OR OBSTRUCTIONS TO VISIBILITY.

* - STATION DOES NOT REPORT WEATHER SUCH AS PRECIPITATION OR FOG.

+ - STATION NOT QUALITY CONTROLLED BY THE NATIONAL WEATHER SERVICE.
    USE DATA WITH CAUTION...ESPECIALLY DEWPOINT AND RELATIVE
    HUMIDITY OBSERVATIONS.

INZ001>003-010>013-019-020-191800-
NORTHWEST INDIANA

CITY           SKY/WX    TMP DP  RH WIND       PRES   REMARKS
GARY /AIRPORT/ PTSUNNY   52  37  58 SW8       30.20F
KNOX *+        PTSUNNY   50  36  59 W8        30.20F
LA PORTE +     PTSUNNY   51  39  63 SW13      30.20F
MICHIGAN CITY+ PTSUNNY   50  34  53 SW12      30.19F
MONTICELLO +   PTSUNNY   50  39  65 SW9       30.22F
RENSSELAER +   PTSUNNY   52  41  66 SW12      30.21F
VALPARAISO     PTSUNNY   50  38  63 SW10      30.20F

$$

LMZ046-743>745-191800-
SOUTHERN LAKE MICHIGAN

STATION/POSITION TIME  TEMP WIND        PRES
                       AIR  DIR/SP/G
                 (UTC) (F)  (DEG/KT/KT) (MB)
MICHIGAN CITY    1700   48  200/ 11/ 13   N/A

$$

INZ004-005-014>016-021>024-191800-
NORTH CENTRAL INDIANA

CITY           SKY/WX    TMP DP  RH WIND       PRES   REMARKS
GOSHEN         MOSUNNY   50  39  66 S8        30.19F
LOGANSPORT +   PTSUNNY   50  36  57 SW7       30.23F
PERU/GRISSOM   PTSUNNY   51  42  71 W7        30.22F
ROCHESTER +    PTSUNNY   54  39  58 SW9       30.22F
SOUTH BEND     PTSUNNY   51  38  60 S15       30.20F
WARSAW +       MOSUNNY   48  36  61 CALM      30.21F

$$

INZ006>009-017-018-025>027-191800-
NORTHEAST INDIANA

CITY           SKY/WX    TMP DP  RH WIND       PRES   REMARKS
ANGOLA *+      MOSUNNY   50  37  62 W8        30.19F
AUBURN +       MOSUNNY   50  34  53 W3        30.21F
FORT WAYNE     CLOUDY    49  36  61 W7        30.23S
HUNTINGTON +   MOSUNNY   49  37  65 NW5       30.22S

$$

INZ028-029-035-036-043>045-051>053-191800-
WEST CENTRAL INDIANA

CITY           SKY/WX    TMP DP  RH WIND       PRES   REMARKS
CRAWFORDSVL +  CLOUDY    48  37  66 SW7       30.24
GREENCASTLE +  CLOUDY    48  37  66 W3        30.25F
LAFAYETTE      PTSUNNY   49  39  68 W8        30.23F
TERRE HAUTE    PTSUNNY   52  39  61 SW8       30.25F

$$

INZ030>032-037>040-046>048-054>057-064-065-191800-
CENTRAL INDIANA

CITY           SKY/WX    TMP DP  RH WIND       PRES   REMARKS
CP ATTERBURY + MOSUNNY   50  37  62 W5        30.25F
COLUMBUS       MOSUNNY   52  41  66 MISG        N/A
FRANKFORT +    MOSUNNY   52  37  57 SW5       30.25S
INDIANAPOLIS   PTSUNNY   50  37  61 VRB3      30.24F
-EAGLE CREEK   MOSUNNY   51  37  58 VRB5      30.23F
KOKOMO *+      MOSUNNY   52  36  54 SW7       30.23S
MARION +       MOSUNNY   49  35  58 CALM      30.23F
MT COMFORT *+  SUNNY     54  27  35 SW7       30.23F
SHELBYVILLE    SUNNY     53  38  56 W8        30.23F
ZIONSVILLE +   MOSUNNY   53  36  53 S6        30.23F

$$

INZ033-034-041-042-049-050-058-059-191800-
EAST CENTRAL INDIANA

CITY           SKY/WX    TMP DP  RH WIND       PRES   REMARKS
MUNCIE         MOSUNNY   50  35  56 VRB7      30.22F

$$

INZ060-061-067>069-081>083-085>088-191800-
SOUTHWEST INDIANA

CITY           SKY/WX    TMP DP  RH WIND       PRES   REMARKS
EVANSVILLE     MOSUNNY   53  40  61 CALM      30.26F
HUNTINGBURG *+ CLOUDY    52  41  66 W6        30.26F
WASHINGTON +   MOSUNNY   52  40  63 CALM      30.25F

$$

INZ062-063-066-070>080-084-089>092-191800-
SOUTH CENTRAL AND SOUTHEAST INDIANA

CITY           SKY/WX    TMP DP  RH WIND       PRES   REMARKS
BEDFORD +      CLOUDY    48  39  71 W3        30.26
BLOOMINGTON    CLOUDY    50  40  68 S7        30.24F

$$



USA.gov is the U.S. government's official web portal to all federal, state and local government web resources and services.